Weather History for Drummond Island, MI

Change the Weather History Date:

Monday, June 2, 2014

  Actual Average (KCIU) Record (KCIU)
Temperature  
Mean Temperature 66 °F -  
Max Temperature 73 °F 65 °F 80 °F (2007)
Min Temperature 59 °F 43 °F 32 °F (1993)
Cooling Degree Days 1    
Growing Degree Days 16 (Base 50)    
Moisture  
Dew Point 60 °F    
Average Humidity 91    
Maximum Humidity 100    
Minimum Humidity 74    
Precipitation  
Precipitation 0.00 in - - ()
Sea Level Pressure  
Sea Level Pressure 29.78 in    
Wind  
Wind Speed 3 mph (SSE)    
Max Wind Speed 16 mph    
Max Gust Speed 32 mph    
Visibility 9 miles    
Events Rain    
Averages and records for this station are not official NWS values.
T = Trace of Precipitation, MM = Missing Value Source: NWS Daily Summary

Daily Weather History Graph

Daily Weather History Graph

Search for Another Location

Airport:

Trip Planner

Search our weather history database for the weather conditions in past years. The results will help you decide how hot, cold, wet, or windy it might be!

Date:

Astronomy

Jun. 02, 2014 Rise Set
Actual Time 5:47 AM EDT 9:19 PM EDT
Civil Twilight 5:09 AM EDT 9:56 PM EDT
Nautical Twilight 4:20 AM EDT 10:46 PM EDT
Astronomical Twilight 3:14 AM EDT 11:52 PM EDT
Moon 10:22 AM EDT (6/2) 12:05 AM EDT (6/2)
Length of Visible Light 16h 47m
Length of Day
15h 32m
Waxing Crescent, 21% of the Moon is Illuminated
Jun 2
Waxing Crescent
Jun 5
First Quarter
Jun 13
Full
Jun 19
Last Quarter
Jun 27
New

Hourly Weather History & Observations

Time (EDT) Temp. Dew Point Humidity Pressure Visibility Wind Dir Wind Speed Gust Speed Precip Events Conditions
12:15 AM 59.2 °F 54.7 °F 85% 29.92 in 10.0 mi Calm Calm - N/A   Mostly Cloudy
12:35 AM 59.7 °F 54.5 °F 83% 29.92 in 10.0 mi Calm Calm - N/A   Overcast
12:54 AM 59.0 °F 55.2 °F 87% 29.91 in 10.0 mi Calm Calm - N/A   Mostly Cloudy
1:15 AM 59.4 °F 55.6 °F 87% 29.90 in 10.0 mi Calm Calm - N/A   Mostly Cloudy
1:35 AM 59.0 °F 55.4 °F 88% 29.89 in 10.0 mi Calm Calm - N/A   Mostly Cloudy
1:55 AM 59.9 °F 55.6 °F 86% 29.89 in 10.0 mi Calm Calm - N/A   Mostly Cloudy
2:15 AM 59.5 °F 55.8 °F 87% 29.89 in 10.0 mi Calm Calm - N/A   Scattered Clouds
2:34 AM 59.0 °F 56.5 °F 91% 29.90 in 10.0 mi Calm Calm - N/A   Mostly Cloudy
2:55 AM 59.7 °F 56.7 °F 90% 29.90 in 10.0 mi Calm Calm - N/A   Overcast
3:15 AM 60.3 °F 56.7 °F 88% 29.90 in 10.0 mi Calm Calm - N/A Rain Light Rain
3:34 AM 59.7 °F 56.5 °F 89% 29.89 in 10.0 mi Calm Calm - N/A Rain Light Rain
3:55 AM 59.2 °F 56.3 °F 90% 29.88 in 10.0 mi ESE 3.5 mph - N/A   Overcast
4:15 AM 59.2 °F 56.5 °F 91% 29.87 in 10.0 mi ESE 3.5 mph - N/A   Mostly Cloudy
4:34 AM 59.9 °F 57.6 °F 92% 29.87 in 10.0 mi Calm Calm - N/A   Mostly Cloudy
4:55 AM 60.1 °F 57.9 °F 93% 29.87 in 10.0 mi Calm Calm - N/A Rain Light Rain
5:15 AM 59.0 °F 58.6 °F 99% 29.87 in 10.0 mi Calm Calm - N/A   Mostly Cloudy
5:35 AM 60.1 °F 59.2 °F 97% 29.87 in 10.0 mi NNW 3.5 mph - N/A   Overcast
5:55 AM 59.2 °F 57.9 °F 96% 29.87 in 10.0 mi Calm Calm - N/A   Scattered Clouds
6:14 AM 59.4 °F 58.5 °F 97% 29.86 in 10.0 mi Calm Calm - N/A   Scattered Clouds
6:35 AM 59.5 °F 59.0 °F 98% 29.86 in 10.0 mi Calm Calm - N/A   Scattered Clouds
6:55 AM 59.9 °F 59.4 °F 98% 29.86 in 10.0 mi SSE 3.5 mph - N/A   Clear
7:14 AM 60.3 °F 58.8 °F 95% 29.86 in 10.0 mi SE 4.6 mph - N/A   Clear
7:35 AM 60.1 °F 57.0 °F 90% 29.86 in 10.0 mi SE 5.8 mph - N/A   Clear
7:55 AM 59.2 °F 55.2 °F 87% 29.86 in 10.0 mi SSE 6.9 mph - N/A   Clear
8:14 AM 60.4 °F 55.2 °F 83% 29.85 in 10.0 mi SE 4.6 mph - N/A   Scattered Clouds
8:35 AM 62.4 °F 55.6 °F 78% 29.86 in 10.0 mi SSE 6.9 mph - N/A   Scattered Clouds
8:54 AM 63.9 °F 56.5 °F 77% 29.86 in 10.0 mi SSE 6.9 mph - N/A   Mostly Cloudy
9:15 AM 62.4 °F 55.8 °F 79% 29.85 in 10.0 mi SE 3.5 mph - N/A   Overcast
9:35 AM 63.0 °F 56.7 °F 80% 29.85 in 10.0 mi SSE 5.8 mph - N/A   Mostly Cloudy
9:54 AM 62.8 °F 57.0 °F 81% 29.84 in 10.0 mi SE 4.6 mph - N/A   Overcast
10:15 AM 62.6 °F 57.0 °F 82% 29.83 in 10.0 mi SSE 3.5 mph - N/A   Overcast
10:35 AM 63.0 °F 57.9 °F 84% 29.83 in 10.0 mi SSE 5.8 mph - N/A   Overcast
10:54 AM 64.0 °F 58.1 °F 81% 29.82 in 10.0 mi SSE 6.9 mph - N/A   Overcast
11:15 AM 65.1 °F 59.0 °F 81% 29.81 in 10.0 mi SE 4.6 mph - N/A   Overcast
11:35 AM 68.5 °F 60.8 °F 76% 29.81 in 10.0 mi SE 6.9 mph - N/A   Overcast
11:55 AM 70.7 °F 62.4 °F 75% 29.80 in 10.0 mi SE 5.8 mph - N/A   Overcast
12:15 PM 69.4 °F 61.9 °F 77% 29.79 in 10.0 mi SSE 6.9 mph - N/A   Overcast
1:15 PM 73.6 °F 64.8 °F 74% 29.77 in 10.0 mi SE 8.1 mph - N/A   Scattered Clouds
1:34 PM 73.0 °F 64.6 °F 75% 29.76 in 10.0 mi SSE 10.4 mph 16.1 mph N/A   Scattered Clouds
2:14 PM 69.3 °F 63.3 °F 81% 29.75 in 10.0 mi South 6.9 mph - N/A Rain Light Rain
2:35 PM 65.1 °F 63.7 °F 95% 29.74 in 7.0 mi SE 8.1 mph 18.4 mph N/A   Overcast
2:55 PM 67.1 °F 64.0 °F 90% 29.72 in 10.0 mi SE 6.9 mph - N/A   Overcast
3:14 PM 69.6 °F 65.3 °F 86% 29.70 in 10.0 mi ESE 10.4 mph 16.1 mph N/A   Mostly Cloudy
3:35 PM 70.0 °F 65.7 °F 86% 29.68 in 10.0 mi SE 9.2 mph - N/A   Mostly Cloudy
3:55 PM 70.9 °F 65.7 °F 83% 29.67 in 10.0 mi SE 10.4 mph 17.3 mph N/A   Mostly Cloudy
4:15 PM 65.8 °F 62.6 °F 89% 29.65 in 10.0 mi SE 11.5 mph 18.4 mph N/A   Mostly Cloudy
4:34 PM 66.9 °F 63.0 °F 87% 29.64 in 10.0 mi SSE 10.4 mph 17.3 mph N/A   Mostly Cloudy
4:55 PM 64.0 °F 61.5 °F 91% 29.71 in 2.0 mi SW 16.1 mph 32.2 mph N/A Rain Heavy Rain
5:15 PM 62.6 °F 62.6 °F 100% 29.67 in 1.0 mi WSW 4.6 mph - N/A Rain Rain
5:35 PM 63.5 °F 63.5 °F 100% 29.69 in 2.0 mi South 4.6 mph - N/A Rain Heavy Rain
5:55 PM 63.5 °F 63.5 °F 100% 29.67 in 4.0 mi Calm Calm - N/A Rain Rain
6:14 PM 63.7 °F 63.7 °F 100% 29.65 in 4.0 mi Calm Calm - N/A Rain Rain
6:35 PM 63.7 °F 63.7 °F 100% 29.65 in 5.0 mi SSW 3.5 mph - N/A Rain Rain
6:55 PM 64.8 °F 64.8 °F 100% 29.65 in 10.0 mi SSW 9.2 mph - N/A   Overcast
7:14 PM 66.4 °F 66.4 °F 100% 29.66 in 10.0 mi SW 6.9 mph - N/A   Mostly Cloudy
7:35 PM 65.7 °F 65.7 °F 100% 29.66 in 10.0 mi SW 5.8 mph - N/A   Scattered Clouds
7:55 PM 65.8 °F 65.8 °F 100% 29.66 in 10.0 mi SSW 4.6 mph - N/A   Scattered Clouds
8:15 PM 65.7 °F 65.7 °F 100% 29.66 in 10.0 mi SSW 3.5 mph - N/A   Scattered Clouds
8:35 PM 64.4 °F 64.4 °F 100% 29.66 in 10.0 mi SSW 3.5 mph - N/A   Scattered Clouds
8:54 PM 63.9 °F 63.9 °F 100% 29.66 in 10.0 mi South 3.5 mph - N/A   Mostly Cloudy
9:15 PM 63.5 °F 63.5 °F 100% 29.66 in 10.0 mi SSE 3.5 mph - N/A   Overcast
9:35 PM 62.6 °F 62.6 °F 100% 29.66 in 10.0 mi SSE 5.8 mph - N/A   Overcast
9:54 PM 61.7 °F 61.7 °F 100% 29.66 in 10.0 mi SSE 5.8 mph - N/A   Overcast
10:15 PM 60.6 °F 60.6 °F 100% 29.66 in 10.0 mi SSE 5.8 mph - N/A Rain Light Rain
10:35 PM 60.4 °F 60.4 °F 100% 29.66 in 10.0 mi South 5.8 mph - N/A Rain Light Rain
10:54 PM 60.8 °F 60.8 °F 100% 29.66 in 7.0 mi South 6.9 mph - N/A Rain Light Rain
11:15 PM 60.8 °F 60.8 °F 100% 29.66 in 10.0 mi South 6.9 mph - N/A   Overcast
11:35 PM 60.8 °F 60.8 °F 100% 29.66 in 10.0 mi South 8.1 mph - N/A   Scattered Clouds
11:55 PM 60.1 °F 60.1 °F 100% 29.66 in 10.0 mi SSE 5.8 mph - N/A   Clear